Location: Arborea
(39.7744°N, 8.5819°E)
Time: 23:15:18
(UTC+00:00)

Cosmos 1000 Rocket - Pass Details

Date: 07 October 2023
Orbit: 952 x 993 km, 82.9° (Epoch: 03 December)

Event Time Altitude Azimuth Distance (km) Brightness Sun altitude
Exits shadow 20:13:54 30° 352° (N) 1,705 5.9 -37.2°
Drops below altitude 10° 20:16:57 10° 1° (N) 2,763 7.1 -37.7°
Sets 20:19:31 0° 5° (N) 3,714 7.8 -38.2°
